Location: Marcé
(47.5801°N, 0.3280°W)
Time: 19:07:19
(UTC+01:00)

Tiros 1 - Pass Details

Date: 05 December 2021
Orbit: 629 x 664 km, 48.4° (Epoch: 26 January)

Event Time Altitude Azimuth Distance (km) Brightness Sun altitude
Rises 00:51:45 0° 286° (WNW) 2,957 - -64.8°
Reaches altitude 10° 00:54:12 10° 278° (W) 2,050 - -64.8°
Maximum altitude 00:58:33 37° 212° (SSW) 1,011 - -64.8°
Drops below altitude 10° 01:02:55 10° 145° (SE) 2,061 - -64.7°
Sets 01:05:24 0° 137° (SE) 2,975 - -64.6°
